Regional Weather Roundup
Issued by NWS

Home | Current Version | Previous Version | Text Only | Print | Product List | Glossary Off
Versions: 1 2 3 4 5 6 7 8 9 10 11 12 13 14 15 16 17 18 19 20 21 22 23 24 25 26 27

000
ASUS45 KBOU 241707
RWRCO

WEATHER ROUNDUP FOR COLORADO
NATIONAL WEATHER SERVICE DENVER/BOULDER CO
1100 AM MDT SUN JUL 24 2016

NOTE: "FAIR" INDICATES FEW OR NO CLOUDS BELOW 12000 FEET WITH NO
SIGNIFICANT WEATHER AND/OR OBSTRUCTIONS TO VISIBILITY.

COZ001>005-013-030-031-241800-
...NORTHWEST COLORADO...

CITY           SKY/WX    TMP DP  RH WIND       PRES   REMARKS
CRAIG          FAIR      79  39  23 E7        30.23F
HAYDEN         FAIR      75  39  27 CALM      30.29R
MEEKER         FAIR      81  43  26 CALM      30.26F
MOUNT WERNER   NOT AVBL
STEAMBOAT SPGS FAIR      73  45  36 CALM      30.31S
WALDEN         FAIR      73  36  25 SW3       30.40R
$$

COZ006>008-011-241800-
...WEST CENTRAL VALLEYS...

CITY           SKY/WX    TMP DP  RH WIND       PRES   REMARKS
GRAND JUNCTION FAIR      89  43  20 SE15      30.11F
MONTROSE       FAIR      83  47  28 NW6       30.22S
EAGLE          SUNNY     79  39  24 CALM      30.30F
RIFLE          FAIR      85  43  22 CALM      30.19F
DELTA          FAIR      89  40  17 SE3       30.17F
NUCLA          FAIR      86  39  19 N3        30.25S
$$

COZ017>023-064>068-241800-
...SOUTHWEST COLORADO...

CITY           SKY/WX    TMP DP  RH WIND       PRES   REMARKS
DURANGO        FAIR      83  42  23 VRB5      30.28S
CORTEZ         FAIR      89  43  20 SW7       30.22R
PAGOSA SPRINGS FAIR      81  38  21 SE3       30.36S
TELLURIDE      FAIR      73  35  25 CALM      30.51S
WOLF CREEK PAS CLOUDY    59  34  38 S6        30.75S
$$

COZ009-010-012-014-032>034-037-058>063-241800-
...CENTRAL COLORADO...

CITY           SKY/WX    TMP DP  RH WIND       PRES   REMARKS
ASPEN          FAIR      79  46  31 VRB7      30.35F
BUENA VISTA    FAIR      75  38  25 E6        30.40F
COPPER MTN     FAIR      64  34  32 CALM      30.72S
BERTHOUD PASS  FAIR      54  39  58 N16G23    30.75S
COTTONWOOD PAS FAIR      72  36  26 E5        30.56S
GUNNISON       FAIR      72  45  37 SW3       30.42F
KREMMLING      FAIR      73  37  27 CALM      30.37F
LEADVILLE      FAIR      64  37  36 VRB3      30.54F
MONARCH PASS   FAIR      61  37  41 MISG      30.83R
SALIDA         FAIR      78  41  27 CALM      30.45F
SUNLIGHT       FAIR      68  43  40 CALM      30.64S
WILKERSON PASS PTSUNNY   63  36  36 CALM      30.70R
$$

COZ069>075-241800-
...SAN LUIS VALLEY/SANGRE DE CRISTO MOUNTAINS...

CITY           SKY/WX    TMP DP  RH WIND       PRES   REMARKS
ALAMOSA        FAIR      76  46  34 VRB6      30.37S
LA VETA PASS   FAIR      68  41  37 SE3       30.58S
SAGUACHE       FAIR      77  45  31 SW5       30.40S
$$

COZ035-036-038>040-241800-
...NORTHERN COLORADO FRONT RANGE...

CITY           SKY/WX    TMP DP  RH WIND       PRES   REMARKS
DENVER INTL AP FAIR      86  43  22 VRB7      30.18F
DMNS CITY PARK   N/A     86  46  25 NE3       30.17F
AURORA         MOSUNNY   86  43  22 S3        30.20F
FRONT RANGE AP PTSUNNY   86  46  25 CALM      30.20F
ERIE MUNI ARPT FAIR      81  49  32 SE3       30.17S
BOULDER MUN AP FAIR      81  50  34 N7        30.18S
CENTENNIAL     FAIR      84  37  18 S7        30.21S
BROOMFIELD     MOSUNNY   82  48  30 E7        30.21S
LONGMONT       FAIR      83  51  33 E3        30.18F
$$

COZ041-046-047-076>085-087-088-241800-
...PIKES PEAK/PALMER DIVIDE AND SOUTHERN FOOTHILLS...

CITY           SKY/WX    TMP DP  RH WIND       PRES   REMARKS
COLO. SPRINGS  FAIR      80  50  34 SE5       30.27F
A. F. ACADEMY  LGT RAIN  82  44  26 S6        30.27F
SCHRIEVER AFB  NOT AVBL
ELLICOTT       FAIR     N/A N/A N/A CALM      30.26R
FALCON         NOT AVBL
FORT CARSON    FAIR      82  49  32 VRB7      30.23F
LIMON          FAIR      82  53  36 SE9       30.22R
MONUMENT HILL  FAIR      77  39  25 SE5       30.32F
TRINIDAD       NOT AVBL
$$

COZ042>045-048>051-090-091-241800-
...NORTHEAST COLORADO...

CITY           SKY/WX    TMP DP  RH WIND       PRES   REMARKS
GREELEY ARPT   FAIR      79  59  50 SE7       30.18R
AKRON          FAIR      78  57  48 E21G30    30.17S
BURLINGTON     FAIR      84  61  45 NE9G18    30.15S
WRAY           NOT AVBL
STERLING       FAIR      81  59  47 S6        30.13R
HOLYOKE        FAIR      81  54  39 W14G20    30.19S
FORT MORGAN    FAIR      83  58  41 E16G23    30.17S
$$

COZ086-089-092>099-241800-
...SOUTHEAST COLORADO...

CITY           SKY/WX    TMP DP  RH WIND       PRES   REMARKS
PUEBLO         FAIR      86  53  32 SE5       30.15S
LA JUNTA       FAIR      82  60  47 VRB3      30.12F
LAMAR          FAIR      84  64  50 E6        30.08S
SPRINGFIELD      N/A     85  57  38 NE9       30.13R
$$




USA.gov is the U.S. government's official web portal to all federal, state and local government web resources and services.